Time,TemperatureF,DewpointF,PressureIn,WindDirection,WindDirectionDegrees,WindSpeedMPH,WindSpeedGustMPH,Humidity,HourlyPrecipIn,Conditions,Clouds,dailyrainin,SoftwareType,DateUTC
2013-03-22 00:00:00,20.2,8.9,30.04,NNW,338,0.0,4.0,61,0.00,,---,0.00,VWS V14.01,2013-03-22 04:00:00,
2013-03-22 00:01:00,20.2,8.9,30.04,NNW,338,0.0,4.0,61,0.00,,---,0.00,VWS V14.01,2013-03-22 04:01:00,
2013-03-22 00:03:00,20.3,9.4,30.04,NNW,338,0.0,0.0,62,0.00,,---,0.00,VWS V14.01,2013-03-22 04:03:00,
2013-03-22 00:09:00,20.4,9.1,30.04,NNW,339,0.0,5.0,61,0.00,,---,0.00,VWS V14.01,2013-03-22 04:09:00,
2013-03-22 00:15:00,20.5,8.8,30.03,NNW,338,0.0,5.0,60,0.00,,---,0.00,VWS V14.01,2013-03-22 04:15:00,
2013-03-22 00:19:00,20.3,9.4,30.04,NNW,339,0.0,5.0,62,0.00,,---,0.00,VWS V14.01,2013-03-22 04:19:00,
2013-03-22 00:25:00,20.0,9.4,30.04,NNW,340,0.0,5.0,63,0.00,,---,0.00,VWS V14.01,2013-03-22 04:25:00,
2013-03-22 00:30:00,19.8,8.9,30.04,NNW,340,1.0,5.0,62,0.00,,---,0.00,VWS V14.01,2013-03-22 04:30:00,
2013-03-22 00:31:00,19.8,8.9,30.04,NNW,338,0.0,5.0,62,0.00,,---,0.00,VWS V14.01,2013-03-22 04:31:00,
2013-03-22 00:37:00,19.7,9.2,30.05,NNW,340,0.0,3.0,63,0.00,,---,0.00,VWS V14.01,2013-03-22 04:37:00,
2013-03-22 00:43:00,19.5,9.3,30.05,NNW,340,0.0,3.0,64,0.00,,---,0.00,VWS V14.01,2013-03-22 04:43:00,
2013-03-22 00:49:00,19.5,9.3,30.04,NNW,340,0.0,3.0,64,0.00,,---,0.00,VWS V14.01,2013-03-22 04:49:00,
2013-03-22 00:55:00,19.8,8.9,30.04,NNW,340,0.0,3.0,62,0.00,,---,0.00,VWS V14.01,2013-03-22 04:55:00,
2013-03-22 01:00:00,20.1,9.2,30.04,NNW,340,0.0,3.0,62,0.00,,---,0.00,VWS V14.01,2013-03-22 05:00:00,
2013-03-22 01:02:00,20.1,9.2,30.04,NNW,340,0.0,3.0,62,0.00,,---,0.00,VWS V14.01,2013-03-22 05:02:00,
2013-03-22 01:08:00,20.1,9.2,30.03,NNW,340,0.0,4.0,62,0.00,,---,0.00,VWS V14.01,2013-03-22 05:08:00,
2013-03-22 01:14:00,20.2,9.3,30.03,NNW,340,0.0,4.0,62,0.00,,---,0.00,VWS V14.01,2013-03-22 05:14:00,
2013-03-22 01:20:00,20.1,9.2,30.03,NNW,340,0.0,5.0,62,0.00,,---,0.00,VWS V14.01,2013-03-22 05:20:00,
2013-03-22 01:26:00,20.2,8.9,30.03,NNW,345,0.0,5.0,61,0.00,,---,0.00,VWS V14.01,2013-03-22 05:26:00,
2013-03-22 01:30:00,20.3,9.0,30.03,NNW,345,0.0,5.0,61,0.00,,---,0.00,VWS V14.01,2013-03-22 05:30:00,
2013-03-22 01:32:00,20.3,9.0,30.03,NNW,345,0.0,0.0,61,0.00,,---,0.00,VWS V14.01,2013-03-22 05:32:00,
2013-03-22 01:38:00,20.4,8.7,30.03,NNW,345,0.0,2.0,60,0.00,,---,0.00,VWS V14.01,2013-03-22 05:38:00,
2013-03-22 01:44:00,20.5,8.8,30.02,NNW,348,0.0,4.0,60,0.00,,---,0.00,VWS V14.01,2013-03-22 05:44:00,
2013-03-22 01:50:00,20.4,9.1,30.02,NNW,346,0.0,5.0,61,0.00,,---,0.00,VWS V14.01,2013-03-22 05:50:00,
2013-03-22 01:56:00,20.2,8.9,30.03,NNW,346,0.0,5.0,61,0.00,,---,0.00,VWS V14.01,2013-03-22 05:56:00,
2013-03-22 02:00:00,20.0,8.7,30.03,NNW,347,0.0,5.0,61,0.00,,---,0.00,VWS V14.01,2013-03-22 06:00:00,
2013-03-22 02:02:00,20.0,8.7,30.03,NNW,347,0.0,5.0,61,0.00,,---,0.00,VWS V14.01,2013-03-22 06:02:00,
2013-03-22 02:08:00,19.8,8.9,30.02,NNW,346,0.0,5.0,62,0.00,,---,0.00,VWS V14.01,2013-03-22 06:08:00,
2013-03-22 02:14:00,19.7,9.5,30.03,NNW,347,0.0,5.0,64,0.00,,---,0.00,VWS V14.01,2013-03-22 06:14:00,
2013-03-22 02:20:00,19.5,9.3,30.02,NNW,348,0.0,5.0,64,0.00,,---,0.00,VWS V14.01,2013-03-22 06:20:00,
2013-03-22 02:26:00,19.6,9.1,30.02,NNW,348,0.0,5.0,63,0.00,,---,0.00,VWS V14.01,2013-03-22 06:26:00,
2013-03-22 02:30:00,19.7,8.8,30.02,NNW,348,0.0,5.0,62,0.00,,---,0.00,VWS V14.01,2013-03-22 06:30:00,
2013-03-22 02:32:00,19.7,8.8,30.02,NNW,348,0.0,5.0,62,0.00,,---,0.00,VWS V14.01,2013-03-22 06:32:00,
2013-03-22 02:38:00,19.7,9.2,30.02,NNW,348,0.0,0.0,63,0.00,,---,0.00,VWS V14.01,2013-03-22 06:38:00,
2013-03-22 02:44:00,19.7,9.2,30.02,NNW,348,0.0,3.0,63,0.00,,---,0.00,VWS V14.01,2013-03-22 06:44:00,
2013-03-22 02:50:00,19.6,9.1,30.02,NNW,348,0.0,3.0,63,0.00,,---,0.00,VWS V14.01,2013-03-22 06:50:00,
2013-03-22 02:57:00,19.6,9.1,30.02,NNW,348,0.0,3.0,63,0.00,,---,0.00,VWS V14.01,2013-03-22 06:57:00,
2013-03-22 03:00:00,19.2,9.4,30.04,NNW,348,0.0,3.0,65,0.00,,---,0.00,VWS V14.01,2013-03-22 07:00:00,
2013-03-22 03:02:00,19.2,9.4,30.04,NNW,348,0.0,3.0,65,0.00,,---,0.00,VWS V14.01,2013-03-22 07:02:00,
2013-03-22 03:09:00,19.0,8.8,30.03,NNE,29,0.0,2.0,64,0.00,,---,0.00,VWS V14.01,2013-03-22 07:09:00,
2013-03-22 03:15:00,19.4,9.2,30.04,East,86,0.0,2.0,64,0.00,,---,0.00,VWS V14.01,2013-03-22 07:15:00,
2013-03-22 03:30:00,19.2,9.0,30.04,NNW,338,0.0,2.0,64,0.00,,---,0.00,VWS V14.01,2013-03-22 07:30:00,
2013-03-22 04:00:00,18.5,10.0,30.05,NNW,338,0.0,0.0,69,0.00,,---,0.00,VWS V14.01,2013-03-22 08:00:00,
2013-03-22 04:30:00,17.5,9.7,30.06,NNW,338,0.0,0.0,71,0.00,,---,0.00,VWS V14.01,2013-03-22 08:30:00,
2013-03-22 05:00:00,16.9,8.8,30.06,NNW,338,0.0,0.0,70,0.00,,---,0.00,VWS V14.01,2013-03-22 09:00:00,
2013-03-22 05:30:00,18.9,8.4,30.06,East,90,0.0,5.0,63,0.00,,---,0.00,VWS V14.01,2013-03-22 09:30:00,
2013-03-22 06:00:00,19.9,10.7,30.07,East,90,0.0,0.0,67,0.00,,---,0.00,VWS V14.01,2013-03-22 10:00:00,
2013-03-22 06:30:00,19.0,10.5,30.10,East,90,0.0,0.0,69,0.00,,---,0.00,VWS V14.01,2013-03-22 10:30:00,
2013-03-22 07:00:00,17.9,10.4,30.11,East,90,0.0,0.0,72,0.00,,---,0.00,VWS V14.01,2013-03-22 11:00:00,
2013-03-22 07:30:00,18.1,11.2,30.12,East,90,0.0,0.0,74,0.00,,---,0.00,VWS V14.01,2013-03-22 11:30:00,
2013-03-22 08:00:00,20.0,7.6,30.11,East,90,0.0,0.0,58,0.00,,---,0.00,VWS V14.01,2013-03-22 12:00:00,
2013-03-22 08:30:00,23.0,7.1,30.10,East,90,0.0,2.0,50,0.00,,---,0.00,VWS V14.01,2013-03-22 12:30:00,
2013-03-22 09:00:00,20.0,7.6,30.11,East,90,0.0,0.0,58,0.00,,---,0.00,VWS V14.01,2013-03-22 13:00:00,
2013-03-22 09:26:00,24.7,10.4,30.12,East,86,0.0,0.0,54,0.00,,---,0.00,VWS V14.01,2013-03-22 13:26:00,
2013-03-22 09:30:00,23.0,7.1,30.10,East,90,0.0,2.0,50,0.00,,---,0.00,VWS V14.01,2013-03-22 13:30:00,
2013-03-22 09:32:00,24.9,11.0,30.12,East,86,0.0,0.0,55,0.00,,---,0.00,VWS V14.01,2013-03-22 13:32:00,
2013-03-22 09:38:00,25.3,10.6,30.12,East,86,0.0,0.0,53,0.00,,---,0.00,VWS V14.01,2013-03-22 13:38:00,
2013-03-22 09:44:00,25.8,10.6,30.12,East,86,0.0,0.0,52,0.00,,---,0.00,VWS V14.01,2013-03-22 13:44:00,
2013-03-22 09:50:00,26.3,10.2,30.12,East,86,0.0,0.0,50,0.00,,---,0.00,VWS V14.01,2013-03-22 13:50:00,
2013-03-22 09:58:00,26.9,8.9,30.12,East,86,0.0,2.0,46,0.00,,---,0.00,VWS V14.01,2013-03-22 13:58:00,
2013-03-22 10:04:00,27.2,9.6,30.12,East,86,0.0,0.0,47,0.00,,---,0.00,VWS V14.01,2013-03-22 14:04:00,
2013-03-22 10:10:00,27.5,9.0,30.11,East,86,3.0,5.0,45,0.00,,---,0.00,VWS V14.01,2013-03-22 14:10:00,
2013-03-22 10:16:00,27.8,10.2,30.11,East,86,0.0,5.0,47,0.00,,---,0.00,VWS V14.01,2013-03-22 14:16:00,
2013-03-22 10:22:00,28.4,9.3,30.11,East,85,0.0,5.0,44,0.00,,---,0.00,VWS V14.01,2013-03-22 14:22:00,
2013-03-22 10:28:00,28.9,9.2,30.11,East,85,0.0,5.0,43,0.00,,---,0.00,VWS V14.01,2013-03-22 14:28:00,
2013-03-22 10:30:00,24.9,11.0,30.12,East,86,0.0,0.0,55,0.00,,---,0.00,VWS V14.01,2013-03-22 14:30:00,
2013-03-22 10:34:00,29.7,9.4,30.10,ENE,68,4.0,9.0,42,0.00,,---,0.00,VWS V14.01,2013-03-22 14:34:00,
2013-03-22 10:41:00,29.8,7.9,30.10,NE,56,4.0,9.0,39,0.00,,---,0.00,VWS V14.01,2013-03-22 14:41:00,
2013-03-22 10:47:00,30.1,8.1,30.10,NE,52,5.0,9.0,39,0.00,,---,0.00,VWS V14.01,2013-03-22 14:47:00,
2013-03-22 10:53:00,30.5,8.5,30.09,NE,51,4.0,9.0,39,0.00,,---,0.00,VWS V14.01,2013-03-22 14:53:00,
2013-03-22 10:59:00,31.1,9.1,30.09,NE,51,0.0,9.0,39,0.00,,---,0.00,VWS V14.01,2013-03-22 14:59:00,
2013-03-22 11:00:00,27.1,9.6,30.12,East,86,0.0,2.0,47,0.00,,---,0.00,VWS V14.01,2013-03-22 15:00:00,
2013-03-22 11:05:00,31.7,9.0,30.10,NE,51,0.0,7.0,38,0.00,,---,0.00,VWS V14.01,2013-03-22 15:05:00,
2013-03-22 11:11:00,32.0,9.3,30.10,NE,34,2.0,9.0,38,0.00,,---,0.00,VWS V14.01,2013-03-22 15:11:00,
2013-03-22 11:17:00,32.3,10.1,30.09,NE,34,0.0,9.0,39,0.00,,---,0.00,VWS V14.01,2013-03-22 15:17:00,
2013-03-22 11:23:00,33.2,10.4,30.09,NE,34,4.0,9.0,38,0.00,,---,0.00,VWS V14.01,2013-03-22 15:23:00,
2013-03-22 11:29:00,33.9,9.8,30.08,NE,34,3.0,10.0,36,0.00,,---,0.00,VWS V14.01,2013-03-22 15:29:00,
2013-03-22 11:30:00,29.3,9.6,30.11,East,84,0.0,5.0,43,0.00,,---,0.00,VWS V14.01,2013-03-22 15:30:00,
2013-03-22 11:35:00,34.2,10.7,30.09,NNE,22,3.0,7.0,37,0.00,,---,0.00,VWS V14.01,2013-03-22 15:35:00,
2013-03-22 11:41:00,34.4,8.9,30.08,NNE,19,7.0,12.0,34,0.00,,---,0.00,VWS V14.01,2013-03-22 15:41:00,
2013-03-22 11:47:00,35.2,10.3,30.08,NNE,17,4.0,12.0,35,0.00,,---,0.00,VWS V14.01,2013-03-22 15:47:00,
2013-03-22 11:53:00,35.2,9.0,30.08,North,360,7.0,14.0,33,0.00,,---,0.00,VWS V14.01,2013-03-22 15:53:00,
2013-03-22 11:59:00,35.2,10.3,30.08,North,5,3.0,14.0,35,0.00,,---,0.00,VWS V14.01,2013-03-22 15:59:00,
2013-03-22 12:00:00,31.4,9.3,30.10,NE,51,1.0,9.0,39,0.00,,---,0.00,VWS V14.01,2013-03-22 16:00:00,
2013-03-22 12:05:00,35.3,10.4,30.09,North,5,0.0,11.0,35,0.00,,---,0.00,VWS V14.01,2013-03-22 16:05:00,
2013-03-22 12:11:00,35.6,9.4,30.08,North,5,6.0,11.0,33,0.00,,---,0.00,VWS V14.01,2013-03-22 16:11:00,
2013-03-22 12:17:00,35.3,9.8,30.09,North,360,0.0,11.0,34,0.00,,---,0.00,VWS V14.01,2013-03-22 16:17:00,
2013-03-22 12:23:00,35.5,11.2,30.08,North,5,0.0,11.0,36,0.00,,---,0.00,VWS V14.01,2013-03-22 16:23:00,
2013-03-22 12:29:00,36.1,11.1,30.08,North,5,2.0,11.0,35,0.00,,---,0.00,VWS V14.01,2013-03-22 16:29:00,
2013-03-22 12:30:00,33.8,9.7,30.08,NNE,22,4.0,13.0,36,0.00,,---,0.00,VWS V14.01,2013-03-22 16:30:00,
2013-03-22 12:35:00,36.0,11.6,30.08,North,5,0.0,5.0,36,0.00,,---,0.00,VWS V14.01,2013-03-22 16:35:00,
2013-03-22 12:41:00,35.9,11.6,30.08,North,5,0.0,6.0,36,0.00,,---,0.00,VWS V14.01,2013-03-22 16:41:00,
2013-03-22 12:47:00,36.0,11.6,30.08,North,360,2.0,10.0,36,0.00,,---,0.00,VWS V14.01,2013-03-22 16:47:00,
2013-03-22 12:53:00,36.6,12.8,30.08,North,360,4.0,10.0,37,0.00,,---,0.00,VWS V14.01,2013-03-22 16:53:00,
2013-03-22 12:59:00,37.2,13.9,30.08,North,360,7.0,10.0,38,0.00,,---,0.00,VWS V14.01,2013-03-22 16:59:00,
2013-03-22 13:00:00,35.3,9.1,30.09,North,5,2.0,14.0,33,0.00,,---,0.00,VWS V14.01,2013-03-22 17:00:00,
2013-03-22 13:08:00,37.4,14.1,30.08,North,350,7.0,11.0,38,0.00,,---,0.00,VWS V14.01,2013-03-22 17:08:00,
2013-03-22 13:14:00,37.7,17.2,30.07,North,351,3.0,11.0,43,0.00,,---,0.00,VWS V14.01,2013-03-22 17:14:00,
2013-03-22 13:20:00,37.7,18.8,30.07,North,350,0.0,11.0,46,0.00,,---,0.00,VWS V14.01,2013-03-22 17:20:00,
2013-03-22 13:26:00,38.0,19.1,30.07,North,350,0.0,11.0,46,0.00,,---,0.00,VWS V14.01,2013-03-22 17:26:00,
2013-03-22 13:30:00,36.1,11.7,30.08,North,5,0.0,11.0,36,0.00,,---,0.00,VWS V14.01,2013-03-22 17:30:00,
2013-03-22 13:32:00,37.9,18.0,30.08,North,351,0.0,11.0,44,0.00,,---,0.00,VWS V14.01,2013-03-22 17:32:00,
2013-03-22 13:38:00,37.6,17.7,30.09,North,350,0.0,5.0,44,0.00,,---,0.00,VWS V14.01,2013-03-22 17:38:00,
2013-03-22 13:44:00,37.3,17.9,30.09,North,350,0.0,5.0,45,0.00,,---,0.00,VWS V14.01,2013-03-22 17:44:00,
2013-03-22 13:50:00,36.9,17.6,30.09,North,350,0.0,5.0,45,0.00,,---,0.00,VWS V14.01,2013-03-22 17:50:00,
2013-03-22 13:56:00,36.9,19.1,30.09,North,350,4.0,5.0,48,0.00,,---,0.00,VWS V14.01,2013-03-22 17:56:00,
2013-03-22 14:00:00,37.1,14.4,30.08,North,360,7.0,10.0,39,0.00,,---,0.00,VWS V14.01,2013-03-22 18:00:00,
2013-03-22 14:02:00,36.8,19.5,30.09,North,350,0.0,6.0,49,0.00,,---,0.00,VWS V14.01,2013-03-22 18:02:00,
2013-03-22 14:08:00,37.0,20.6,30.08,NNW,346,4.0,10.0,51,0.00,,---,0.00,VWS V14.01,2013-03-22 18:08:00,
2013-03-22 14:14:00,36.5,20.1,30.09,NNW,346,6.0,12.0,51,0.00,,---,0.00,VWS V14.01,2013-03-22 18:14:00,
2013-03-22 14:20:00,36.5,21.5,30.08,NNW,344,0.0,12.0,54,0.00,,---,0.00,VWS V14.01,2013-03-22 18:20:00,
2013-03-22 14:26:00,36.5,21.9,30.08,NNW,344,0.0,12.0,55,0.00,,---,0.00,VWS V14.01,2013-03-22 18:26:00,
2013-03-22 14:30:00,37.9,18.0,30.08,North,351,0.0,11.0,44,0.00,,---,0.00,VWS V14.01,2013-03-22 18:30:00,
2013-03-22 14:32:00,36.9,22.3,30.08,NNW,344,0.0,12.0,55,0.00,,---,0.00,VWS V14.01,2013-03-22 18:32:00,
2013-03-22 14:38:00,36.7,22.5,30.08,NNW,344,0.0,5.0,56,0.00,,---,0.00,VWS V14.01,2013-03-22 18:38:00,
2013-03-22 14:44:00,37.1,24.1,30.07,NNW,346,9.0,9.0,59,0.00,,---,0.00,VWS V14.01,2013-03-22 18:44:00,
2013-03-22 14:50:00,37.5,24.5,30.07,NNW,346,0.0,9.0,59,0.00,,---,0.00,VWS V14.01,2013-03-22 18:50:00,
2013-03-22 14:56:00,38.0,25.8,30.07,NNW,348,0.0,9.0,61,0.00,,---,0.00,VWS V14.01,2013-03-22 18:56:00,
2013-03-22 15:00:00,36.8,19.5,30.09,North,350,0.0,6.0,49,0.00,,---,0.00,VWS V14.01,2013-03-22 19:00:00,
2013-03-22 15:02:00,38.3,25.6,30.08,NNW,348,1.0,9.0,60,0.00,,---,0.00,VWS V14.01,2013-03-22 19:02:00,
2013-03-22 15:08:00,38.4,26.1,30.08,WNW,299,0.0,9.0,61,0.00,,---,0.00,VWS V14.01,2013-03-22 19:08:00,
2013-03-22 15:14:00,38.1,25.9,30.08,WNW,299,0.0,9.0,61,0.00,,---,0.00,VWS V14.01,2013-03-22 19:14:00,
2013-03-22 15:20:00,38.2,26.0,30.08,WNW,299,2.0,9.0,61,0.00,,---,0.00,VWS V14.01,2013-03-22 19:20:00,
2013-03-22 15:26:00,38.3,26.4,30.08,WNW,299,0.0,9.0,62,0.00,,---,0.00,VWS V14.01,2013-03-22 19:26:00,
2013-03-22 15:30:00,36.9,22.3,30.08,NNW,344,0.0,12.0,55,0.00,,---,0.00,VWS V14.01,2013-03-22 19:30:00,
2013-03-22 15:32:00,38.7,26.4,30.07,WNW,299,0.0,9.0,61,0.00,,---,0.00,VWS V14.01,2013-03-22 19:32:00,
2013-03-22 15:39:00,39.1,26.4,30.08,WNW,299,3.0,5.0,60,0.00,,---,0.00,VWS V14.01,2013-03-22 19:39:00,
2013-03-22 15:45:00,39.0,25.9,30.08,WNW,299,0.0,5.0,59,0.00,,---,0.00,VWS V14.01,2013-03-22 19:45:00,
2013-03-22 15:51:00,38.9,26.2,30.08,WNW,299,0.0,5.0,60,0.00,,---,0.00,VWS V14.01,2013-03-22 19:51:00,
2013-03-22 15:57:00,38.8,26.5,30.08,WNW,290,0.0,5.0,61,0.00,,---,0.00,VWS V14.01,2013-03-22 19:57:00,
2013-03-22 16:00:00,38.3,25.6,30.08,NNW,348,1.0,9.0,60,0.00,,---,0.00,VWS V14.01,2013-03-22 20:00:00,
2013-03-22 16:02:00,38.9,26.6,30.07,WNW,290,0.0,5.0,61,0.00,,---,0.00,VWS V14.01,2013-03-22 20:02:00,
2013-03-22 16:09:00,38.7,26.4,30.07,WNW,291,0.0,6.0,61,0.00,,---,0.00,VWS V14.01,2013-03-22 20:09:00,
2013-03-22 16:15:00,38.5,26.2,30.07,WNW,292,0.0,6.0,61,0.00,,---,0.00,VWS V14.01,2013-03-22 20:15:00,
2013-03-22 16:30:00,38.7,26.4,30.07,WNW,299,0.0,9.0,61,0.00,,---,0.00,VWS V14.01,2013-03-22 20:30:00,
2013-03-22 17:00:00,38.9,26.6,30.07,WNW,290,0.0,5.0,61,0.00,,---,0.00,VWS V14.01,2013-03-22 21:00:00,